Dubuque, IA

12:21 PM CDT on May 23, 2017 (GMT -0500)
Dubuque Regional

Weather History for KDBQ - October, 2013

Change the Weather History Date:

Friday, October 18, 2013

  Actual Average Record
Temperature  
Mean Temperature 43 °F 49 °F  
Max Temperature 49 °F 59 °F 87 °F (1950)
Min Temperature 36 °F 39 °F 16 °F (1952)
Degree Days  
Heating Degree Days 22 16  
Month to date heating degree days 170 234  
Since 1 July heating degree days 308 412  
Cooling Degree Days 0 0  
Month to date cooling degree days 8 4  
Year to date cooling degree days 640 641  
Moisture  
Dew Point 37 °F    
Average Humidity 76    
Maximum Humidity 96    
Minimum Humidity 56    
Precipitation  
Precipitation 0.00 in 0.09 in 1.67 in (1984)
Month to date precipitation 1.29 1.54  
Year to date precipitation 34.35 30.98  
Snow  
Snow 0.00 in 0.00 in - ()
Month to date snowfall 0.0 0.0  
Since 1 July snowfall 0.0 0.0  
Since 1 September snowfall 0.0 0.0  
Snow Depth 0.00 in    
Sea Level Pressure  
Sea Level Pressure 29.93 in    
Wind  
Wind Speed 8 mph (West)    
Max Wind Speed 21 mph    
Max Gust Speed 25 mph    
Visibility 10 miles    
Events      
T = Trace of Precipitation, MM = Missing Value Source: NWS Daily Summary

Daily Weather History Graph

Daily Weather History Graph

Search for Another Location

Airport or City:

Trip Planner

Search our weather history database for the weather conditions in past years. The results will help you decide how hot, cold, wet, or windy it might be!

Date:

Astronomy

Oct. 18, 2013 Rise Set
Actual Time 7:19 AM CDT 6:15 PM CDT
Civil Twilight 6:51 AM CDT 6:44 PM CDT
Nautical Twilight 6:18 AM CDT 7:16 PM CDT
Astronomical Twilight 5:45 AM CDT 7:49 PM CDT
Moon 6:05 PM CDT (10/18) 6:55 AM CDT (10/18)
Length of Visible Light 11h 52m
Length of Day
10h 56m
Full, 100% of the Moon is Illuminated
Oct 18
Full
Oct 18
Full
Oct 26
Last Quarter
Nov 3
New
Nov 9
First Quarter

Hourly Weather History & Observations

Time (CDT) Temp. Windchill Dew Point Humidity Pressure Visibility Wind Dir Wind Speed Gust Speed Precip Events Conditions
12:53 AM 37.0 °F 32.4 °F 35.1 °F 93% 29.86 in 10.0 mi SW 5.8 mph - N/A   Clear
1:53 AM 37.9 °F 35.5 °F 35.1 °F 89% 29.86 in 10.0 mi South 3.5 mph - N/A   Clear
2:53 AM 37.0 °F 34.5 °F 36.0 °F 96% 29.87 in 10.0 mi SW 3.5 mph - N/A   Mostly Cloudy
3:53 AM 44.1 °F 37.4 °F 42.1 °F 93% 29.87 in 10.0 mi WNW 13.8 mph 23.0 mph N/A   Overcast
4:51 AM 42.8 °F 37.0 °F 41.0 °F 93% 29.86 in 10.0 mi West 10.4 mph - N/A   Overcast
4:53 AM 43.0 °F 36.4 °F 41.0 °F 93% 29.88 in 10.0 mi West 12.7 mph - N/A   Overcast
5:35 AM 42.8 °F 35.8 °F 39.2 °F 87% 29.87 in 10.0 mi WNW 13.8 mph - N/A   Overcast
5:53 AM 42.1 °F 35.2 °F 39.9 °F 92% 29.89 in 10.0 mi WNW 12.7 mph - N/A   Overcast
6:10 AM 42.8 °F 36.6 °F 39.2 °F 87% 29.88 in 10.0 mi WNW 11.5 mph - N/A   Overcast
6:53 AM 42.1 °F 35.7 °F 39.9 °F 92% 29.92 in 10.0 mi West 11.5 mph - N/A   Overcast
7:48 AM 42.8 °F 36.2 °F 39.2 °F 87% 29.91 in 10.0 mi West 12.7 mph 20.7 mph N/A   Overcast
7:53 AM 42.1 °F 35.2 °F 39.0 °F 89% 29.93 in 10.0 mi West 12.7 mph 20.7 mph N/A   Overcast
8:40 AM 42.8 °F 36.2 °F 39.2 °F 87% 29.94 in 10.0 mi West 12.7 mph - N/A   Overcast
8:53 AM 43.0 °F 35.7 °F 37.9 °F 82% 29.96 in 10.0 mi WNW 15.0 mph 18.4 mph N/A   Overcast
9:53 AM 43.0 °F 35.7 °F 37.9 °F 82% 29.98 in 10.0 mi WNW 15.0 mph 21.9 mph N/A   Overcast
10:53 AM 44.1 °F 37.1 °F 37.0 °F 76% 29.98 in 10.0 mi WNW 15.0 mph - N/A   Overcast
11:53 AM 45.0 °F 40.1 °F 37.0 °F 74% 29.99 in 10.0 mi NW 9.2 mph - N/A   Overcast
12:53 PM 46.0 °F 41.9 °F 36.0 °F 68% 29.99 in 10.0 mi NW 8.1 mph - N/A   Overcast
1:53 PM 48.0 °F - 34.0 °F 58% 29.97 in 10.0 mi NW 11.5 mph - N/A   Overcast
2:53 PM 48.0 °F - 34.0 °F 58% 29.96 in 10.0 mi WNW 15.0 mph - N/A   Overcast
3:53 PM 48.9 °F - 33.1 °F 54% 29.96 in 10.0 mi WNW 12.7 mph - N/A   Scattered Clouds
4:53 PM 48.0 °F - 33.1 °F 56% 29.97 in 10.0 mi NW 6.9 mph - N/A   Partly Cloudy
5:53 PM 46.0 °F 44.8 °F 33.1 °F 61% 29.97 in 10.0 mi West 3.5 mph - N/A   Clear
6:53 PM 43.0 °F - 34.0 °F 71% 29.98 in 10.0 mi Calm Calm - N/A   Clear
7:53 PM 41.0 °F - 34.0 °F 76% 29.98 in 10.0 mi Calm Calm - N/A   Clear
8:53 PM 39.9 °F - 36.0 °F 86% 29.97 in 10.0 mi Calm Calm - N/A   Clear
9:53 PM 39.9 °F 37.8 °F 35.1 °F 83% 29.98 in 10.0 mi SW 3.5 mph - N/A   Partly Cloudy
10:53 PM 39.0 °F 36.8 °F 34.0 °F 82% 29.97 in 10.0 mi SW 3.5 mph - N/A   Clear
11:53 PM 37.9 °F 35.5 °F 35.1 °F 89% 29.95 in 10.0 mi SSW 3.5 mph - N/A   Clear